DateTimeUTC,F1_A11,F1_S11,BsB_S11,BsG_S11,BsR_S11,BbsB_S11,BbsG_S11,BbsR_S11,BaB_A11,BaG_A11,BaR_A11,Tu_S11,T_S11,Uu_S11,U_S11,P_S11,T1_A11
2021-07-19T17:00:00Z,00000200,20000000,,,,,,,0000.35,0000.45,0000.03,19.9,26.2,15.4,10.5,0674.4,31.1
2021-07-19T17:01:00Z,00000200,20000000,,,,,,,-000.30,-000.29,0000.02,19.9,26.2,15.4,10.5,0674.4,31.1
2021-07-19T17:02:00Z,00000200,20000000,,,,,,,-000.24,0000.05,0000.13,19.9,26.2,15.4,10.5,0674.4,31.1
2021-07-19T17:03:00Z,00000200,60000000,,,,,,,0000.33,0000.32,-000.05,19.9,26.2,15.4,10.5,0674.4,31.1
2021-07-19T17:04:00Z,00000200,40000000,-000.00,0000.23,0000.33,-000.23,-000.03,-000.06,-000.10,-000.15,-000.01,19.9,26.1,15.3,10.6,0675.3,31.1
2021-07-19T17:05:00Z,00000200,00000000,0000.20,0000.29,0000.39,-000.36,0000.09,0000.26,0000.17,0000.01,0000.10,20.0,26.0,15.3,10.6,0675.4,31.1
2021-07-19T17:06:00Z,00000200,00000000,0000.22,0000.27,0000.13,0000.27,-000.19,0000.16,-000.04,-000.09,-000.10,20.0,26.0,15.5,10.7,0675.4,31.1
2021-07-19T17:07:00Z,00000200,00000000,0000.61,0000.25,0000.18,-000.03,-000.02,0000.27,0000.61,0000.56,0000.42,20.0,26.0,15.5,10.8,0675.4,31.1
2021-07-19T17:08:00Z,00000200,00000000,0000.69,0000.42,0000.10,-000.14,0000.27,0000.21,-000.44,-000.30,-000.24,20.0,26.0,15.8,11.0,0675.4,31.1
2021-07-19T17:09:00Z,00000200,00000000,0000.64,0000.29,0000.20,0000.16,0000.00,0000.22,0000.30,0000.39,0000.34,20.0,26.0,15.9,11.1,0675.4,31.1
2021-07-19T17:10:00Z,00000200,00000000,0000.31,0000.37,0000.29,-000.15,0000.50,0000.45,-000.36,-000.26,-000.13,20.0,26.0,15.9,11.0,0675.4,31.1
2021-07-19T17:11:00Z,00000200,00000000,0000.43,0000.14,-000.09,-000.31,-000.02,-000.01,0000.20,-000.17,0000.15,20.0,26.0,15.7,10.9,0675.4,31.1
2021-07-19T17:12:00Z,00000200,00000000,0000.49,0000.16,0000.21,0000.02,0000.29,0000.24,0000.15,0000.30,0000.17,20.0,26.0,15.9,11.1,0675.4,31.1
2021-07-19T17:13:00Z,00000200,00000000,0000.60,0000.46,0000.26,-000.05,0000.07,0000.32,-000.31,-000.24,-000.40,20.0,26.0,15.6,10.9,0675.3,31.1
2021-07-19T17:14:00Z,00000200,00000000,0000.57,0000.23,0000.31,-000.32,0000.30,0000.59,-000.15,-000.01,0000.12,20.0,26.0,15.5,10.8,0675.4,31.1
2021-07-19T17:15:00Z,00000200,00000000,0000.02,0000.19,0000.54,0000.39,-000.07,0000.25,0000.35,-000.22,-000.07,20.0,26.0,15.4,10.7,0675.4,31.1
2021-07-19T17:16:00Z,00000200,00000000,0000.42,-000.05,0000.49,0000.04,0000.07,0000.31,0000.42,0000.48,0000.21,20.0,26.0,15.5,10.8,0675.4,31.1
2021-07-19T17:17:00Z,00000200,00000000,0000.41,-000.11,0000.27,0000.38,0000.07,0000.28,-000.41,-000.09,0000.15,20.0,26.0,15.7,10.9,0675.4,31.1
2021-07-19T17:18:00Z,00000200,00000000,0000.37,0000.02,0000.14,0000.29,0000.11,0000.10,0000.01,0000.04,0000.07,20.0,26.0,15.8,11.0,0675.4,31.1
2021-07-19T17:19:00Z,00000200,00000000,0000.51,0000.31,-000.38,0000.34,-000.01,0000.10,0000.28,0000.17,-000.26,20.0,26.0,15.8,11.0,0675.4,31.1
2021-07-19T17:20:00Z,00000200,00000000,0000.90,0000.28,0000.73,-000.07,-000.14,0000.45,-000.19,0000.10,0000.24,20.0,26.0,15.8,11.1,0675.4,31.1
2021-07-19T17:21:00Z,00000200,00000000,0000.90,0000.21,-000.10,0000.15,-000.09,0000.18,0000.26,-000.19,-000.02,20.0,26.0,15.9,11.1,0675.4,31.1
2021-07-19T17:22:00Z,00000200,00000000,0000.89,0000.10,0000.19,-000.48,0000.13,0000.06,-000.06,0000.32,-000.31,20.0,26.0,15.7,11.0,0675.4,31.1
2021-07-19T17:23:00Z,00000200,00000000,0000.78,-000.09,0000.39,0000.17,0000.13,0000.28,0000.01,0000.05,0000.36,20.0,26.0,15.8,11.0,0675.4,31.1
2021-07-19T17:24:00Z,00000200,00000000,0000.73,0000.21,0000.02,-000.15,0000.11,0000.12,0000.27,0000.02,0000.02,20.1,26.0,15.8,11.0,0675.4,31.1
2021-07-19T17:25:00Z,00000200,00000000,0000.32,0000.18,0000.16,-000.42,0000.09,0000.22,0000.04,-000.39,0000.24,20.0,26.0,15.6,10.9,0675.4,31.1
2021-07-19T17:26:00Z,00000200,00000000,0000.03,0000.10,-000.04,-000.25,-000.16,-000.07,0000.19,0000.53,-000.15,20.1,26.0,15.6,10.9,0675.5,31.1
2021-07-19T17:27:00Z,00000200,00000000,0001.17,0000.62,0000.45,0000.27,0000.26,0000.02,-000.11,-000.17,0000.28,20.1,26.0,15.9,11.1,0675.5,31.1
2021-07-19T17:28:00Z,00000200,00000000,0000.90,0000.29,0000.03,-000.19,0000.32,0000.02,0000.11,0000.22,0000.15,20.1,26.0,15.9,11.1,0675.5,31.1
2021-07-19T17:29:00Z,00000200,00000000,0000.85,0000.40,0000.02,0000.08,-000.13,0000.25,0000.38,0000.12,0000.16,20.1,26.0,15.8,11.1,0675.5,31.1
2021-07-19T17:30:00Z,00000200,00000000,0000.58,0000.41,-000.29,-000.01,-000.09,-000.00,-000.34,-000.01,-000.39,20.1,26.0,15.8,11.1,0675.5,31.1
2021-07-19T17:31:00Z,00000200,00000000,0000.75,0000.56,0000.38,-000.07,-000.07,0000.15,0000.04,-000.14,0000.23,20.0,26.0,15.8,11.1,0675.5,31.1
2021-07-19T17:32:00Z,00000200,00000000,0001.11,0000.35,0000.23,-000.17,0000.31,0000.10,0000.25,0000.38,0000.30,20.1,26.0,15.8,11.0,0675.5,31.1
2021-07-19T17:33:00Z,00000200,00000000,0001.03,0000.53,0000.25,0000.33,-000.22,0000.47,0000.22,0000.25,-000.13,20.1,26.0,15.8,11.0,0675.5,31.1
2021-07-19T17:34:00Z,00000200,00000000,0001.11,0000.46,0000.21,-000.15,0000.08,0000.00,0000.07,0000.26,0000.30,20.1,26.0,16.0,11.2,0675.5,31.1
2021-07-19T17:35:00Z,00000200,00000000,0000.78,0000.11,-000.16,-000.25,-000.01,-000.08,-000.03,-000.31,0000.17,20.1,26.0,16.1,11.2,0675.5,31.1
2021-07-19T17:36:00Z,00000200,00000000,0001.26,0000.65,0000.45,-000.30,0000.16,0000.12,0000.04,0000.23,0000.11,20.1,26.0,15.9,11.1,0675.4,31.1
2021-07-19T17:37:00Z,00000200,00000000,0000.70,0000.65,0000.34,-000.41,0000.01,0000.58,0000.27,0000.05,-000.25,20.1,26.0,16.1,11.3,0675.4,31.1
2021-07-19T17:38:00Z,00000200,00000000,0001.22,0000.45,0000.12,0000.63,0000.17,0000.13,0000.17,0000.18,0000.27,20.1,26.0,16.1,11.3,0675.4,31.1
2021-07-19T17:39:00Z,00000200,00000000,0001.08,0000.73,0000.42,-000.38,0000.11,0000.47,0000.07,-000.26,0000.20,20.1,26.0,16.1,11.2,0675.4,31.1
2021-07-19T17:40:00Z,00000200,00000000,0000.43,-000.00,0000.30,-000.19,0000.03,0000.30,0000.24,0000.34,0000.24,20.1,26.0,16.1,11.3,0675.4,31.1
2021-07-19T17:41:00Z,00000200,00000000,0001.06,0000.27,0000.37,-000.10,-000.27,0000.21,0000.09,0000.18,-000.15,20.1,26.0,16.1,11.3,0675.4,31.1
2021-07-19T17:42:00Z,00000200,00000000,0001.82,0000.59,-000.35,0000.27,-000.05,-000.00,0000.26,0000.40,0000.16,20.1,26.0,16.2,11.3,0675.4,31.1
2021-07-19T17:43:00Z,00000200,00000000,0001.01,0000.44,0000.39,0000.08,-000.26,0000.35,-000.33,-000.25,-000.18,20.1,26.0,16.2,11.4,0675.4,31.1
2021-07-19T17:44:00Z,00000200,00000000,0001.46,0000.58,0000.85,-000.60,0000.24,0000.50,0000.00,0000.10,-000.20,20.1,26.0,16.0,11.2,0675.4,31.1
2021-07-19T17:45:00Z,00000200,00000000,0000.56,0000.38,0000.54,0000.10,-000.01,0000.45,0000.05,-000.09,0000.42,20.1,26.0,15.8,11.1,0675.4,31.1
2021-07-19T17:46:00Z,00000200,00000000,0000.67,0000.28,0000.40,-000.50,-000.09,0000.36,0000.51,0000.45,0000.19,20.1,26.0,15.9,11.1,0675.4,31.1
2021-07-19T17:47:00Z,00000200,00000000,0001.82,0000.27,0000.33,-000.22,-000.12,-000.27,-000.45,-000.40,-000.29,20.1,26.0,15.9,11.2,0675.4,31.1
2021-07-19T17:48:00Z,00000200,00000000,0001.27,0000.31,0000.39,0000.36,0000.14,-000.04,0000.71,0000.45,0000.31,20.1,26.0,16.0,11.2,0675.4,31.1
2021-07-19T17:49:00Z,00000200,00000000,0000.72,0000.52,0000.43,0000.06,0000.06,0000.11,-000.00,-000.27,0000.17,20.1,26.0,16.0,11.2,0675.4,31.1
2021-07-19T17:50:00Z,00000200,00000000,0000.86,0000.51,0000.31,0000.21,0000.04,-000.10,-000.41,0000.18,-000.23,20.1,26.0,16.0,11.2,0675.3,31.1
2021-07-19T17:51:00Z,00000200,00000000,0000.55,0000.43,0000.13,0000.57,0000.11,0000.12,-000.09,-000.09,0000.04,20.1,26.0,15.7,11.0,0675.3,31.1
2021-07-19T17:52:00Z,00000200,00000000,0000.78,0000.10,0000.23,0000.49,0000.02,0000.30,0000.32,0000.06,-000.09,20.1,26.0,15.7,11.0,0675.3,31.1
2021-07-19T17:53:00Z,00000200,00000000,0001.39,0000.34,0000.27,0000.07,-000.15,-000.10,-000.33,0000.17,0000.32,20.1,26.0,15.8,11.0,0675.3,31.1
2021-07-19T17:54:00Z,00000200,00000000,0000.87,0000.12,-000.09,0000.25,0000.32,-000.29,0000.29,-000.02,-000.14,20.1,26.0,15.5,10.9,0675.3,31.1
2021-07-19T17:55:00Z,00000200,00000000,0000.72,0000.14,-000.06,-000.25,-000.22,0000.16,0000.35,0000.19,0000.06,20.1,26.0,15.6,10.9,0675.3,31.1
2021-07-19T17:56:00Z,00000200,00000000,0000.84,0000.44,0000.02,-000.13,-000.08,-000.28,-000.13,0000.35,-000.02,20.1,26.0,15.6,10.9,0675.3,31.1
2021-07-19T17:57:00Z,00000200,40000000,,,,,,,0000.29,-000.23,0000.22,20.1,26.0,16.2,11.3,0675.4,31.1
2021-07-19T17:58:00Z,00000200,60000000,,,,,,,-000.30,-000.11,-000.07,20.0,26.1,16.1,11.1,0674.4,31.1
2021-07-19T17:59:00Z,00000200,20000000,,,,,,,-000.34,-000.30,-000.02,20.0,26.2,15.9,10.9,0674.3,31.1
